DMSP 5D-2 F13 DEB, 40575

Orbit data source: Space-Track

DMSP 5D-2 F13 DEB, 40575 is space debris in SSO originally from a launch on Fri, 24 Mar 1995 UTC launched from the Air Force Western Test Range (AFWTR). Debris objects in space refer to the collection of defunct objects orbiting the Earth. Examples of debris include non-operational satellites, rocket bodies, and fragments generated from explosions, collisions, or faulty payload assembly.

Loading next visibility...
Identifier
40575, 1995-015EJ
Orbit
SSO
Country
Flag of USUS
Related business
Manufacturer
Unknown
Mission
Spacecraft
Bus & Motor
Unknown
Mass
Unknown
Launch date (UTC)
1995-03-24 (31 years ago)
Launch vehicle
Unknown
Launch site
Air Force Western Test Range (AFWTR)
Object type
Payload
Rocket body
Debris
Shape & HBR
Unknown shape, 0.1 m
Radar Cross Section
Small (<0.1 m²)

Expand to show TLE details & history
Last TLE update: 1 day ago

TLE from 1 day ago
0 DMSP 5D-2 F13 DEB
1 40575U 95015EJ  25297.34302586  .00011108  00000-0  29223-2 0  9998
2 40575  98.6034 340.2116 0014404 168.1364 192.0171 14.49179397550265
Epoch: 2025-10-24T08:13Z
TLE epoch observation values (Epoch: 2025-10-24T08:13:57.434Z)
Latitude
-0.00001°
Longitude
-176.267°
Altitude
741.302 km
Speed
7.479 km/s
True Right ascension
22h 40m 50s
True Declination
0° 00' 00"
Sunlit
Object was in full shadow at epoch
Visualization orbit readout
Latitude
Unknown
Longitude
Unknown
Altitude
Unknown
Speed
Unknown
Apparent Right ascension
Unknown
Apparent Declination
Unknown
Sunlit
N/A
Visualization observer readout
Local Sidereal Time
04:11:56
Azimuth
Unknown
Elevation
Unknown
Doppler factor
Unknown
Orbital elements
Apogee altitude
735.677 km
Perigee altitude
715.213 km
Semi-major axis
7,103.582 km
Eccentricity
0.00144
Inclination
98.6034°
RAAN
340.2116°
Arg. of periapsis
168.1364°
True anomaly
191.98279°
Mean anomaly
192.0171°
Eccentric anomaly
191.99994°
Mean motion
3.62516 °/min
Orbital period
99.31 mins
BSTAR
0.0029223
Loading maneuver chart data...
Computing Atmospheric mass density...

Documentation

Showing up to 5 results
|